Weather History for Key West NAF, FL

Change the Weather History Date:

Thursday, September 5, 2013

  Actual Average Record
Temperature  
Mean Temperature 86 °F -  
Max Temperature 91 °F 88 °F 93 °F (1993)
Min Temperature 82 °F 79 °F 73 °F (1959)
Cooling Degree Days 21    
Growing Degree Days 36 (Base 50)    
Moisture  
Dew Point 76 °F    
Average Humidity 75    
Maximum Humidity 82    
Minimum Humidity 67    
Precipitation  
Precipitation 0.00 in - - ()
Sea Level Pressure  
Sea Level Pressure 30.00 in    
Wind  
Wind Speed 12 mph (East)    
Max Wind Speed 15 mph    
Max Gust Speed -    
Visibility 10 miles    
Events      
Averages and records for this station are not official NWS values.
T = Trace of Precipitation, MM = Missing Value Source: NWS Daily Summary

Daily Weather History Graph

Daily Weather History Graph

Search for Another Location

Airport:

Trip Planner

Search our weather history database for the weather conditions in past years. The results will help you decide how hot, cold, wet, or windy it might be!

Date:

Astronomy

Sep. 05, 2013 Rise Set
Actual Time 7:09 AM EDT 7:40 PM EDT
Civil Twilight 6:46 AM EDT 8:03 PM EDT
Nautical Twilight 6:19 AM EDT 8:30 PM EDT
Astronomical Twilight 5:52 AM EDT 8:57 PM EDT
Moon 7:13 AM EDT (9/5) 7:41 PM EDT (9/5)
Length of Visible Light 13h 17m
Length of Day
12h 31m
New Moon, 0% of the Moon is Illuminated
Sep 5
New Moon
Sep 12
First Quarter
Sep 19
Full
Sep 26
Last Quarter
Oct 4
New

Hourly Weather History & Observations

Time (EDT) Temp. Heat Index Dew Point Humidity Pressure Visibility Wind Dir Wind Speed Gust Speed Precip Events Conditions
12:53 AM 82.9 °F 90.8 °F 75.9 °F 79% 30.02 in 10.0 mi ENE 12.7 mph - N/A   Clear
1:53 AM 82.9 °F 91.8 °F 77.0 °F 82% 30.00 in 10.0 mi East 9.2 mph - N/A   Clear
2:53 AM 82.9 °F 90.2 °F 75.0 °F 77% 29.98 in 10.0 mi East 13.8 mph - N/A   Partly Cloudy
3:53 AM 82.9 °F 90.8 °F 75.9 °F 79% 29.97 in 10.0 mi East 12.7 mph - N/A   Partly Cloudy
4:53 AM 82.9 °F 90.8 °F 75.9 °F 79% 29.98 in 10.0 mi East 11.5 mph - N/A   Partly Cloudy
5:53 AM 82.9 °F 90.8 °F 75.9 °F 79% 29.98 in 10.0 mi East 11.5 mph - N/A   Partly Cloudy
6:53 AM 82.9 °F 90.8 °F 75.9 °F 79% 29.99 in 10.0 mi East 12.7 mph - N/A   Scattered Clouds
7:53 AM 84.0 °F 92.6 °F 75.9 °F 76% 30.00 in 10.0 mi East 12.7 mph - N/A   Scattered Clouds
8:53 AM 86.0 °F 96.0 °F 75.9 °F 72% 30.01 in 10.0 mi East 13.8 mph - N/A   Scattered Clouds
9:53 AM 86.0 °F 98.3 °F 78.1 °F 77% 30.03 in 10.0 mi East 11.5 mph - N/A   Scattered Clouds
10:53 AM 88.0 °F 100.2 °F 77.0 °F 70% 30.04 in 10.0 mi East 12.7 mph - N/A   Scattered Clouds
11:53 AM 89.1 °F 101.4 °F 77.0 °F 67% 30.04 in 10.0 mi East 15.0 mph - N/A   Scattered Clouds
12:53 PM 89.1 °F 103.2 °F 78.1 °F 70% 30.04 in 10.0 mi East 13.8 mph - N/A   Scattered Clouds
1:53 PM 90.0 °F 104.5 °F 78.1 °F 68% 30.03 in 10.0 mi ESE 15.0 mph - N/A   Scattered Clouds
2:53 PM 87.1 °F 98.8 °F 77.0 °F 72% 30.01 in 10.0 mi East 15.0 mph - N/A   Scattered Clouds
3:53 PM 87.1 °F 98.8 °F 77.0 °F 72% 29.99 in 10.0 mi East 13.8 mph - N/A   Mostly Cloudy
4:53 PM 86.0 °F 96.0 °F 75.9 °F 72% 29.97 in 10.0 mi East 13.8 mph - N/A   Mostly Cloudy
5:53 PM 84.9 °F 94.1 °F 75.9 °F 74% 29.98 in 10.0 mi East 12.7 mph - N/A   Mostly Cloudy
6:53 PM 86.0 °F 96.0 °F 75.9 °F 72% 29.98 in 10.0 mi East 10.4 mph - N/A   Mostly Cloudy
7:53 PM 84.0 °F 91.9 °F 75.0 °F 74% 29.98 in 10.0 mi ENE 10.4 mph - N/A   Scattered Clouds
8:53 PM 84.0 °F 92.6 °F 75.9 °F 76% 29.99 in 10.0 mi ENE 11.5 mph - N/A   Scattered Clouds
9:53 PM 84.0 °F 92.6 °F 75.9 °F 76% 30.01 in 10.0 mi ENE 10.4 mph - N/A   Scattered Clouds
10:53 PM 84.0 °F 92.6 °F 75.9 °F 76% 30.02 in 10.0 mi ENE 6.9 mph - N/A   Clear
11:53 PM 84.0 °F 93.7 °F 77.0 °F 79% 30.02 in 10.0 mi ENE 10.4 mph - N/A   Partly Cloudy